Location: Newark
(67.0000°N, 26.0000°E)
Time: 18:51:03
(UTC+00:00)

Envisat - Visible Passes

Search period start: 15 September 2019 00:00
Search period end: 25 September 2019 00:00
Orbit: 764 x 766 km, 98.1° (Epoch: 15 September)

Date Brightness Start Highest point End Pass type
(mag) Time Alt. Az. Time Alt. Az. Time Alt. Az.
15 Sep 5.7 17:37:12 10° SW 17:41:16 24° W 17:45:22 10° NNW visible
16 Sep 6.4 18:42:58 10° W 18:44:41 12° WNW 18:46:23 10° NW visible
17 Sep 5.9 18:03:46 10° WSW 18:07:12 18° W 18:10:37 10° NW visible
18 Sep 5.5 17:25:35 10° SW 17:29:52 27° W 17:34:11 10° NNW visible
19 Sep 6.2 18:30:48 10° W 18:33:11 13° WNW 18:35:35 10° NW visible
20 Sep 5.9 17:52:02 10° SW 17:55:45 20° W 17:59:30 10° NW visible
21 Sep 5.3 17:14:01 10° SSW 17:18:29 30° W 17:22:58 10° NNW visible
22 Sep 6.1 18:18:50 10° WSW 18:21:43 15° WNW 18:24:37 10° NW visible
23 Sep 5.7 17:40:21 10° SW 17:44:20 23° W 17:48:20 10° NNW visible
24 Sep 5.0 17:02:29 10° SSW 17:07:06 34° W 17:11:45 10° NNW visible
24 Sep 6.4 18:46:26 10° W 18:47:46 11° WNW 18:49:07 10° NW visible
